Flag for Austria Weather past 2 weeks in Graz, Styria, Austria

Now
55 °F

Passing clouds.


Feels Like: 52 °F
Forecast: 36 / 62 °F
Wind: 15 mph from Northwest

Location: Graz-Thalerhof-Flughafen

Current Time: Mar 30, 2015 at 7:16:47 PM

Latest Report: Mar 30, 2015 at 6:20 PM


Visibility: N/A

Pressure: 29.59 "Hg

Humidity: 36%

Dew point: 28 °F

Location of GrazLocation

Historic Weather in Graz — Graph

°F

Graz temperature yesterday

Maximum temperature yesterday: 59 °F (at 2:50 PM)
Minimum temperature yesterday: 30 °F (at 12:20 AM)
Average temperature yesterday: 47 °F

Past Weeks' High & Low Weather Summary

 TemperatureHumidityPressure
High63 °F (Mar 21, 2:20 PM)100% (Mar 16, 12:50 AM)30.48 "Hg (Mar 16, 12:50 AM)
Low27 °F (Mar 20, 4:20 AM)30% (Mar 20, 3:20 PM)29.45 "Hg (Mar 30, 11:50 AM)
Average45 °F69%30.03 "Hg
* Reported Mar 15 4:20 PM — Mar 30 5:50 PM, Graz, Weather by CustomWeather, © 2015

Note: Actual official high and low records may vary slightly from our data, if they occured in-between our weather recording intervals... More about our weather records

Advertising

Graz weather history for previous 24 hours

 ConditionsComfort  
Time TempWeatherWind HumidityBarometerVisibility
5:50 PM
Mon, Mar 30
57 °FPassing clouds.17 mph33%29.59 "HgN/A
5:20 PM59 °FScattered clouds.15 mph36%29.56 "HgN/A
4:50 PM59 °FScattered clouds.17 mph39%29.56 "HgN/A
4:20 PM61 °FScattered clouds.16 mph45%29.53 "HgN/A
3:50 PM63 °FPartly sunny.7 mph42%29.50 "HgN/A
3:20 PM61 °FScattered clouds.5 mph48%29.50 "HgN/A
2:50 PM57 °FScattered clouds.6 mph59%29.50 "HgN/A
2:20 PM54 °FBroken clouds.9 mph82%29.50 "HgN/A
1:50 PM52 °FBroken clouds.2 mph77%29.50 "HgN/A
1:20 PM50 °FSprinkles. Partly sunny.17 mph82%29.53 "Hg4 mi
12:50 PM59 °FPartly sunny.3 mph51%29.45 "HgN/A
12:20 PM59 °FPartly sunny.2 mph51%29.45 "HgN/A
11:50 AM57 °FPassing clouds.6 mph55%29.45 "HgN/A
11:20 AM57 °FPassing clouds.3 mph55%29.47 "HgN/A
10:50 AM55 °FScattered clouds.3 mph59%29.47 "HgN/A
10:20 AM54 °FScattered clouds.5 mph67%29.47 "HgN/A
9:50 AM50 °FScattered clouds.3 mph76%29.50 "HgN/A
9:20 AM48 °FScattered clouds.1 mph82%29.50 "HgN/A
8:50 AM46 °FBroken clouds.1 mph87%29.50 "HgN/A
8:20 AM45 °FBroken clouds.1 mph87%29.50 "HgN/A
7:50 AM43 °FBroken clouds.1 mph93%29.53 "HgN/A
7:20 AM43 °FPartly cloudy.1 mph93%29.50 "HgN/A
6:50 AM43 °FClear.2 mph93%29.50 "Hg10 mi
6:20 AM43 °FClear.1 mph93%29.53 "Hg10 mi
5:50 AM43 °FClear.2 mph93%29.50 "Hg10 mi
5:20 AM43 °FClear.1 mph87%29.53 "Hg10 mi
4:50 AM45 °FClear.1 mph87%29.53 "Hg10 mi
4:20 AM45 °FClear.1 mph87%29.50 "Hg10 mi
3:50 AM45 °FClear.1 mph87%29.53 "Hg10 mi
3:20 AM45 °FClear.1 mph87%29.53 "Hg10 mi
2:50 AM45 °FClear.1 mph87%29.56 "Hg10 mi
2:20 AM46 °FClear.2 mph82%29.56 "Hg10 mi
1:50 AM45 °FClear.1 mph87%29.56 "Hg10 mi
1:20 AM46 °FPassing clouds.3 mph82%29.59 "HgN/A
12:50 AM46 °FClear.2 mph82%29.59 "Hg10 mi
12:20 AM46 °FClear.1 mph76%29.59 "Hg10 mi
11:50 PM
Sun, Mar 29
46 °FClear.1 mph76%29.62 "Hg10 mi
11:20 PM48 °FClear.2 mph71%29.62 "Hg10 mi
10:50 PM48 °FClear.2 mph71%29.65 "Hg10 mi
10:20 PM50 °FClear.3 mph71%29.65 "Hg10 mi
9:50 PM48 °FClear.1 mph71%29.65 "Hg10 mi
9:20 PM52 °FClear.2 mph67%29.68 "Hg10 mi
8:50 PM54 °FPassing clouds.3 mph63%29.68 "HgN/A
8:20 PM54 °FPassing clouds.5 mph54%29.68 "HgN/A
7:50 PM54 °FSunny.2 mph54%29.68 "Hg10 mi
7:20 PM55 °FSunny.1 mph55%29.68 "Hg10 mi
Weather by CustomWeather, © 2015

See weather overviewHow to use our weather pages